Hancock, MI

4:32 PM EDT on August 24, 2016 (GMT -0400)
Houghton County Memorial

Weather History for KCMX - December, 2012

Change the Weather History Date:

Monday, December 10, 2012

  Actual Average Record
Temperature  
Mean Temperature 24 °F -  
Max Temperature 26 °F 25 °F 42 °F (1984)
Min Temperature 21 °F 15 °F -5 °F (2013)
Degree Days  
Heating Degree Days 42    
Moisture  
Dew Point 19 °F    
Average Humidity 85    
Maximum Humidity 93    
Minimum Humidity 78    
Precipitation  
Precipitation 0.00 in - - ()
Sea Level Pressure  
Sea Level Pressure 29.84 in    
Wind  
Wind Speed 7 mph (ENE)    
Max Wind Speed 13 mph    
Max Gust Speed 16 mph    
Visibility 8 miles    
Events Snow    
Averages and records for this station are not official NWS values.
T = Trace of Precipitation, MM = Missing Value Source: NWS Daily Summary

Daily Weather History Graph

Daily Weather History Graph

Search for Another Location

Airport or City:

Trip Planner

Search our weather history database for the weather conditions in past years. The results will help you decide how hot, cold, wet, or windy it might be!

Date:

Astronomy

Dec. 10, 2012 Rise Set
Actual Time 8:29 AM EST 5:04 PM EST
Civil Twilight 7:54 AM EST 5:39 PM EST
Nautical Twilight 7:15 AM EST 6:18 PM EST
Astronomical Twilight 6:38 AM EST 6:55 PM EST
Moon 5:05 AM EST (12/10) 2:59 PM EST (12/10)
Length of Visible Light 9h 45m
Length of Day
8h 34m
Waning Crescent, 10% of the Moon is Illuminated
Dec 10
Waning Crescent
Dec 13
New
Dec 20
First Quarter
Dec 28
Full
Jan 4
Last Quarter

Hourly Weather History & Observations

Time (EST) Temp. Windchill Dew Point Humidity Pressure Visibility Wind Dir Wind Speed Gust Speed Precip Events Conditions
12:53 AM 26.1 °F 16.2 °F 19.9 °F 78% 29.88 in 10.0 mi ENE 10.4 mph - N/A   Overcast
1:53 AM 25.0 °F 14.8 °F 19.0 °F 78% 29.86 in 10.0 mi NE 10.4 mph - N/A   Overcast
2:53 AM 25.0 °F 15.5 °F 19.0 °F 78% 29.83 in 10.0 mi NE 9.2 mph - N/A   Overcast
3:53 AM 24.1 °F 16.0 °F 19.9 °F 84% 29.84 in 10.0 mi NE 6.9 mph - N/A   Overcast
4:53 AM 23.0 °F 14.7 °F 19.9 °F 88% 29.83 in 10.0 mi North 6.9 mph - 0.00 in   Overcast
5:05 AM 24.8 °F 16.9 °F 19.4 °F 80% 29.78 in 7.0 mi NNE 6.9 mph - 0.00 in Snow Light Snow
5:53 AM 25.0 °F 17.1 °F 19.9 °F 81% 29.82 in 10.0 mi NNE 6.9 mph - 0.00 in   Overcast
6:53 AM 25.0 °F 13.6 °F 19.9 °F 81% 29.83 in 10.0 mi NNE 12.7 mph 16.1 mph N/A   Overcast
7:53 AM 24.1 °F 13.1 °F 19.9 °F 84% 29.84 in 10.0 mi NE 11.5 mph - N/A   Overcast
8:06 AM 24.8 °F 13.4 °F 19.4 °F 80% 29.79 in 10.0 mi NNE 12.7 mph - N/A   Overcast
8:53 AM 23.0 °F 11.1 °F 19.4 °F 86% 29.79 in 10.0 mi NE 12.7 mph - N/A   Overcast
9:53 AM 23.0 °F 13.9 °F 19.0 °F 85% 29.84 in 10.0 mi NNE 8.1 mph - N/A   Overcast
10:53 AM 23.0 °F 17.0 °F 19.0 °F 85% 29.86 in 10.0 mi NE 4.6 mph - N/A   Overcast
11:53 AM 21.9 °F 14.5 °F 18.0 °F 85% 29.85 in 10.0 mi NE 5.8 mph - N/A   Overcast
12:53 PM 21.9 °F 15.7 °F 18.0 °F 85% 29.85 in 10.0 mi ENE 4.6 mph - N/A   Overcast
1:19 PM 23.0 °F 15.8 °F 17.6 °F 80% 29.81 in 10.0 mi NE 5.8 mph - N/A   Overcast
1:53 PM 23.0 °F 14.7 °F 18.0 °F 81% 29.86 in 10.0 mi NNE 6.9 mph - N/A   Overcast
2:53 PM 23.0 °F - 18.0 °F 81% 29.85 in 9.0 mi Calm Calm - 0.00 in   Overcast
3:53 PM 21.2 °F 16.4 °F 17.6 °F 86% 29.81 in 10.0 mi ENE 3.5 mph - N/A   Overcast
4:53 PM 21.9 °F - 17.1 °F 82% 29.87 in 10.0 mi Calm Calm - N/A   Overcast
5:53 PM 21.9 °F - 17.1 °F 82% 29.87 in 10.0 mi Calm Calm - N/A   Overcast
6:36 PM 21.2 °F - 17.6 °F 86% 29.82 in 10.0 mi Calm Calm - N/A   Overcast
6:53 PM 21.9 °F 17.2 °F 16.0 °F 78% 29.87 in 10.0 mi East 3.5 mph - N/A   Overcast
7:53 PM 21.0 °F 14.6 °F 17.1 °F 85% 29.88 in 10.0 mi East 4.6 mph - N/A   Overcast
8:53 PM 21.0 °F 13.4 °F 17.1 °F 85% 29.88 in 10.0 mi East 5.8 mph - N/A   Overcast
9:53 PM 21.0 °F 14.6 °F 18.0 °F 88% 29.87 in 5.0 mi East 4.6 mph - 0.00 in Snow Light Snow
10:06 PM 21.2 °F - 17.6 °F 86% 29.82 in 8.0 mi Calm Calm - 0.00 in   Overcast
10:33 PM 21.2 °F 14.9 °F 19.4 °F 93% 29.81 in 2.5 mi SSE 4.6 mph - 0.00 in Snow Light Snow
10:42 PM 21.2 °F 13.6 °F 19.4 °F 93% 29.81 in 3.0 mi SE 5.8 mph - 0.00 in Snow Light Snow
10:53 PM 21.9 °F 13.4 °F 19.0 °F 89% 29.87 in 3.0 mi SSE 6.9 mph - 0.00 in Snow Light Snow
11:02 PM 21.2 °F 13.6 °F 19.4 °F 93% 29.81 in 2.5 mi SSE 5.8 mph - 0.00 in Snow Light Snow
11:13 PM 21.2 °F 13.6 °F 19.4 °F 93% 29.81 in 4.0 mi SSE 5.8 mph - 0.00 in Snow Light Snow
11:51 PM 21.2 °F 14.9 °F 19.4 °F 93% 29.80 in 2.5 mi SSE 4.6 mph - 0.00 in Snow Light Snow